Location: Fredericksburg
(30.2750°N, 98.8720°W)
Time: 04:23:57
(UTC-05:00)

PCSat - Visible Passes

Search period start: 29 March 2015 00:00
Search period end: 08 April 2015 00:00
Orbit: 786 x 795 km, 67.1° (Epoch: 27 March)

Date Brightness Start Highest point End Pass type
(mag) Time Alt. Az. Time Alt. Az. Time Alt. Az.
04 Apr 12.2 23:09:03 10° N 23:09:24 11° N 23:09:24 11° N visible
05 Apr 12.0 22:38:52 10° N 22:39:40 13° NNE 22:39:40 13° NNE visible
06 Apr 11.8 22:08:58 10° NNE 22:09:58 12° NNE 22:09:58 12° NNE visible
06 Apr 12.5 23:50:26 10° NNW 23:50:42 11° NNW 23:50:42 11° NNW visible
07 Apr 11.8 21:40:13 10° NE 21:40:18 10° NE 21:40:18 10° NE visible
07 Apr 11.9 23:19:41 10° NNW 23:21:02 18° NNW 23:21:02 18° NNW visible
